AEHF-5 (USA 292)

Last updated on Sun Apr 12 2026 00:02:55 GMT+0000 (Coordinated Universal Time)

1 44481U 19051A 26101.53418383 -.00000257 00000+0 00000+0 0 9995 2 44481 1.5208 331.2555 0070224 3.1665 150.6819 1.00268894 24597
UTC large
Height (km)
Speed (km/s)
/
Latitude / Longitude
Inclination (degrees)
Orbital Period (minutes)
Azimuth
Elevation
Range (km)
Doppler Factor

Next 0 passes for location: London (51.5072 / 0.1276)

Sorry there are no passes over London.
AEHF-5 (USA 292)